When you browse on this site, cookies collect data to enhance your experience and personalize the content and advertising you see.
Visit our Privacy Policy to learn more. By continuing to use the site, you agree to this use of cookies and data.
  • In Lithuania
  • List of Countries
  • For 7 days
  • Water Temperature
  • Weather Map
  • Weather Widgets
  • user-avatar
    Login

    Hourly Weather Bururi

    Today, 22 February, Saturday

    Time Temperature Precipitation Wind Pressure Humidity
    00:00 +18°C° 0 mm 1 mps 615 mmHg 86%
    01:00 +18°C° 0 mm 1 mps 615 mmHg 85%
    02:00 +18°C° 0 mm 1 mps 615 mmHg 84%
    03:00 +18°C° 0 mm 1 mps 615 mmHg 84%
    04:00 +16°C° 0 mm 1 mps 615 mmHg 83%
    05:00 +16°C° 0 mm 1 mps 615 mmHg 83%
    06:00 +19°C° 0 mm 1 mps 616 mmHg 81%
    07:00 +20°C° 0 mm 1 mps 617 mmHg 79%
    08:00 +20°C° 0 mm 0 mps 618 mmHg 75%
    09:00 +23°C° 0.1 mm 1 mps 618 mmHg 71%
    10:00 +24°C° 0.1 mm 1 mps 618 mmHg 67%
    11:00 +25°C° 0.1 mm 1 mps 618 mmHg 62%
    12:00 +25°C° 0.8 mm 1 mps 617 mmHg 65%
    13:00 +25°C° 0.8 mm 1 mps 616 mmHg 68%
    14:00 +25°C° 0 mm 2 mps 616 mmHg 69%
    15:00 +24°C° 0.8 mm 2 mps 616 mmHg 74%
    16:00 +24°C° 0.8 mm 1 mps 615 mmHg 79%
    17:00 +23°C° 0.8 mm 1 mps 615 mmHg 84%
    18:00 +22°C° 0.2 mm 1 mps 615 mmHg 87%
    19:00 +20°C° 0.2 mm 1 mps 615 mmHg 89%
    20:00 +19°C° 0.2 mm 1 mps 615 mmHg 91%
    21:00 +19°C° 0 mm 1 mps 615 mmHg 90%
    22:00 +18°C° 0 mm 1 mps 615 mmHg 89%
    23:00 +18°C° 0 mm 1 mps 616 mmHg 88%

    Tomorrow, 23 February, Sunday

    Time Temperature Precipitation Wind Pressure Humidity
    00:00 +18°C° 0 mm 1 mps 615 mmHg 88%
    01:00 +18°C° 0 mm 1 mps 615 mmHg 87%
    02:00 +18°C° 0 mm 1 mps 614 mmHg 86%
    03:00 +18°C° 0 mm 1 mps 614 mmHg 86%
    04:00 +18°C° 0 mm 1 mps 614 mmHg 85%
    05:00 +18°C° 0 mm 1 mps 614 mmHg 85%
    06:00 +19°C° 0 mm 1 mps 615 mmHg 84%
    07:00 +18°C° 0 mm 0 mps 616 mmHg 82%
    08:00 +19°C° 0 mm 0 mps 617 mmHg 81%
    09:00 +22°C° 0.4 mm 1 mps 617 mmHg 79%
    10:00 +23°C° 0.4 mm 1 mps 617 mmHg 77%
    11:00 +24°C° 0.4 mm 1 mps 617 mmHg 75%
    12:00 +24°C° 1 mm 1 mps 617 mmHg 76%
    13:00 +24°C° 1 mm 1 mps 616 mmHg 78%
    14:00 +24°C° 1 mm 1 mps 616 mmHg 79%
    15:00 +24°C° 0.9 mm 1 mps 615 mmHg 81%
    16:00 +24°C° 0.9 mm 1 mps 615 mmHg 83%
    17:00 +23°C° 0.9 mm 1 mps 615 mmHg 84%
    18:00 +22°C° 1.2 mm 1 mps 615 mmHg 86%
    19:00 +21°C° 1.2 mm 1 mps 615 mmHg 89%
    20:00 +19°C° 1.2 mm 1 mps 615 mmHg 91%
    21:00 +19°C° 0.3 mm 1 mps 616 mmHg 90%
    22:00 +19°C° 0.3 mm 1 mps 616 mmHg 89%
    23:00 +19°C° 0.3 mm 1 mps 616 mmHg 87%

    Day after tomorrow, 24 February, Monday

    Time Temperature Precipitation Wind Pressure Humidity
    00:00 +19°C° 0.7 mm 1 mps 616 mmHg 88%
    01:00 +19°C° 0.7 mm 1 mps 615 mmHg 89%
    02:00 +19°C° 0.7 mm 1 mps 615 mmHg 89%
    03:00 +19°C° 0.4 mm 1 mps 615 mmHg 90%
    04:00 +18°C° 0.4 mm 1 mps 615 mmHg 91%
    05:00 +18°C° 0.4 mm 1 mps 615 mmHg 92%
    06:00 +19°C° 0.1 mm 1 mps 616 mmHg 91%
    07:00 +18°C° 0.1 mm 0 mps 616 mmHg 90%
    08:00 +19°C° 0.1 mm 0 mps 617 mmHg 89%
    09:00 +20°C° 0.8 mm 0 mps 617 mmHg 86%
    10:00 +23°C° 0.8 mm 1 mps 617 mmHg 83%
    11:00 +24°C° 0.8 mm 1 mps 618 mmHg 80%
    12:00 +23°C° 1.8 mm 1 mps 617 mmHg 82%
    13:00 +23°C° 1.8 mm 1 mps 616 mmHg 83%
    14:00 +23°C° 1.8 mm 1 mps 616 mmHg 85%
    15:00 +22°C° 1.1 mm 1 mps 615 mmHg 87%
    16:00 +19°C° 1.1 mm 0 mps 615 mmHg 88%
    17:00 +18°C° 1.1 mm 0 mps 615 mmHg 90%
    18:00 +18°C° 0.5 mm 0 mps 615 mmHg 90%
    19:00 +19°C° 0.5 mm 1 mps 616 mmHg 90%
    20:00 +19°C° 0.5 mm 1 mps 616 mmHg 90%
    21:00 +19°C° 0.4 mm 1 mps 616 mmHg 91%
    22:00 +19°C° 0.4 mm 1 mps 616 mmHg 91%
    23:00 +19°C° 0.4 mm 1 mps 616 mmHg 92%

    25 February, Tuesday

    Time Temperature Precipitation Wind Pressure Humidity
    00:00 +18°C° 0.6 mm 1 mps 616 mmHg 93%
    01:00 +18°C° 0.6 mm 1 mps 616 mmHg 95%
    02:00 +18°C° 0.6 mm 1 mps 615 mmHg 96%
    03:00 +18°C° 0.7 mm 1 mps 615 mmHg 97%
    04:00 +18°C° 0.7 mm 1 mps 615 mmHg 97%
    05:00 +18°C° 0.7 mm 1 mps 615 mmHg 98%
    06:00 +18°C° 0.5 mm 1 mps 616 mmHg 97%
    07:00 +17°C° 0.5 mm 2 mps 616 mmHg 97%
    08:00 +17°C° 0.5 mm 2 mps 617 mmHg 97%
    09:00 +18°C° 0.6 mm 2 mps 617 mmHg 95%
    10:00 +18°C° 0.6 mm 2 mps 617 mmHg 93%
    11:00 +19°C° 0.6 mm 2 mps 617 mmHg 91%
    12:00 +19°C° 0.6 mm 2 mps 617 mmHg 89%
    13:00 +19°C° 0.6 mm 2 mps 616 mmHg 88%
    14:00 +20°C° 0.6 mm 2 mps 615 mmHg 87%
    15:00 +19°C° 0.3 mm 2 mps 615 mmHg 88%
    16:00 +18°C° 0.3 mm 2 mps 615 mmHg 90%
    17:00 +18°C° 0.3 mm 2 mps 615 mmHg 92%
    18:00 +18°C° 0.1 mm 1 mps 615 mmHg 91%
    19:00 +18°C° 0.1 mm 1 mps 615 mmHg 90%
    20:00 +18°C° 0.1 mm 1 mps 615 mmHg 89%
    21:00 +16°C° 0 mm 0 mps 616 mmHg 89%
    22:00 +16°C° 0 mm 0 mps 616 mmHg 89%
    23:00 +15°C° 0 mm 0 mps 616 mmHg 89%

    26 February, Wednesday

    Time Temperature Precipitation Wind Pressure Humidity
    00:00 +15°C° 0 mm 0 mps 615 mmHg 89%
    01:00 +15°C° 0 mm 0 mps 615 mmHg 89%
    02:00 +16°C° 0 mm 1 mps 615 mmHg 90%
    03:00 +16°C° 0 mm 1 mps 615 mmHg 89%
    04:00 +18°C° 0 mm 1 mps 615 mmHg 88%
    05:00 +16°C° 0 mm 0 mps 615 mmHg 88%
    06:00 +16°C° 0 mm 0 mps 616 mmHg 86%
    07:00 +17°C° 0 mm 0 mps 617 mmHg 85%
    08:00 +18°C° 0 mm 0 mps 618 mmHg 83%
    09:00 +19°C° 0.4 mm 0 mps 618 mmHg 81%
    10:00 +22°C° 0.4 mm 1 mps 618 mmHg 80%
    11:00 +23°C° 0.4 mm 1 mps 618 mmHg 79%
    12:00 +23°C° 1.1 mm 1 mps 617 mmHg 80%
    13:00 +23°C° 1.1 mm 1 mps 617 mmHg 81%
    14:00 +23°C° 1.1 mm 1 mps 616 mmHg 82%
    15:00 +22°C° 1.1 mm 1 mps 616 mmHg 84%
    16:00 +22°C° 1.1 mm 1 mps 615 mmHg 86%
    17:00 +21°C° 1.1 mm 1 mps 615 mmHg 88%
    18:00 +20°C° 0.8 mm 1 mps 615 mmHg 89%
    19:00 +19°C° 0.8 mm 1 mps 615 mmHg 91%
    20:00 +18°C° 0.8 mm 1 mps 616 mmHg 92%
    21:00 +18°C° 0.1 mm 1 mps 616 mmHg 91%
    22:00 +18°C° 0.1 mm 1 mps 616 mmHg 90%
    23:00 +18°C° 0.1 mm 1 mps 616 mmHg 90%

    27 February, Thursday

    Time Temperature Precipitation Wind Pressure Humidity
    00:00 +16°C° 0 mm 0 mps 616 mmHg 90%
    01:00 +16°C° 0 mm 0 mps 616 mmHg 89%
    02:00 +15°C° 0 mm 0 mps 615 mmHg 89%
    03:00 +15°C° 0 mm 0 mps 616 mmHg 90%
    04:00 +16°C° 0 mm 1 mps 616 mmHg 91%
    05:00 +16°C° 0 mm 1 mps 616 mmHg 92%
    06:00 +16°C° 0 mm 0 mps 616 mmHg 90%
    07:00 +17°C° 0 mm 0 mps 617 mmHg 88%
    08:00 +18°C° 0 mm 0 mps 618 mmHg 86%
    09:00 +21°C° 0.5 mm 1 mps 618 mmHg 85%
    10:00 +22°C° 0.5 mm 1 mps 618 mmHg 83%
    11:00 +23°C° 0.5 mm 1 mps 618 mmHg 82%
    12:00 +23°C° 1.3 mm 1 mps 618 mmHg 82%
    13:00 +23°C° 1.3 mm 1 mps 617 mmHg 81%
    14:00 +24°C° 1.3 mm 1 mps 617 mmHg 81%
    15:00 +23°C° 1.5 mm 1 mps 616 mmHg 83%
    16:00 +22°C° 1.5 mm 1 mps 616 mmHg 86%
    17:00 +22°C° 1.5 mm 1 mps 615 mmHg 89%
    18:00 +21°C° 1.4 mm 1 mps 616 mmHg 89%
    19:00 +20°C° 1.4 mm 1 mps 616 mmHg 90%
    20:00 +19°C° 1.4 mm 1 mps 616 mmHg 91%
    21:00 +19°C° 0.2 mm 1 mps 616 mmHg 91%
    22:00 +18°C° 0.2 mm 1 mps 616 mmHg 90%
    23:00 +16°C° 0.2 mm 0 mps 616 mmHg 90%
    Show more